| time (UTC) | temp C | wind direction | speed KPH | gust KPH | rain 1hr cm | rain 24hr cm | rain mn cm | humidity % | barometer mb |
| 20260506062018 | 13 | 0.0 | 0.0 | 0.00 | 0.15 | 0.15 | 80 | 1021.4 | |
| 20260506061039 | 13 | 0.0 | 0.0 | 0.00 | 0.15 | 0.15 | 79 | 1021.2 | |
| 20260506051018 | 14 | 88 | 0.0 | 3.2 | 0.00 | 0.15 | 0.15 | 76 | 1020.8 |
| 20260506045019 | 14 | 205 | 1.6 | 4.8 | 0.00 | 0.15 | 0.15 | 76 | 1020.7 |
| 20260506044019 | 14 | 255 | 1.6 | 6.4 | 0.00 | 0.15 | 0.15 | 76 | 1020.6 |
| 20260506043017 | 14 | 248 | 1.6 | 6.4 | 0.00 | 0.15 | 0.15 | 75 | 1020.5 |
| 20260506042027 | 14 | 244 | 1.6 | 6.4 | 0.00 | 0.15 | 0.15 | 75 | 1020.5 |
| 20260506041018 | 14 | 173 | 0.0 | 3.2 | 0.00 | 0.15 | 0.15 | 75 | 1020.2 |
| 20260506040021 | 14 | 213 | 1.6 | 6.4 | 0.00 | 0.15 | 0.15 | 75 | 1020.1 |
| 20260506035016 | 15 | 206 | 1.6 | 4.8 | 0.00 | 0.15 | 0.15 | 74 | 1020.0 |
| 20260506034019 | 15 | 191 | 1.6 | 4.8 | 0.00 | 0.15 | 0.15 | 74 | 1019.9 |
| 20260506033020 | 15 | 210 | 1.6 | 4.8 | 0.00 | 0.15 | 0.15 | 73 | 1019.8 |
| 20260506032017 | -17 | 191 | 1.6 | 6.4 | 0.00 | 0.15 | 0.15 | 1019.6 | |
| 20260506031018 | 15 | 203 | 1.6 | 4.8 | 0.00 | 0.15 | 0.15 | 73 | 1019.5 |
| 20260506030017 | 15 | 194 | 1.6 | 8.0 | 0.00 | 0.15 | 0.15 | 73 | 1019.4 |
| 20260506025016 | 15 | 219 | 3.2 | 6.4 | 0.00 | 0.15 | 0.15 | 72 | 1019.3 |
| 20260506024017 | 15 | 214 | 3.2 | 8.0 | 0.00 | 0.15 | 0.15 | 71 | 1019.2 |
| 20260506023020 | 16 | 208 | 3.2 | 8.0 | 0.00 | 0.15 | 0.15 | 71 | 1019.0 |
| 20260506022016 | 16 | 196 | 4.8 | 9.7 | 0.00 | 0.15 | 0.15 | 70 | 1019.0 |
| 20260506021025 | 16 | 191 | 4.8 | 11.3 | 0.00 | 0.15 | 0.15 | 69 | 1019.1 |
| 20260506020024 | 16 | 226 | 4.8 | 11.3 | 0.00 | 0.15 | 0.15 | 67 | 1018.9 |
| 20260506015017 | 17 | 241 | 6.4 | 14.5 | 0.00 | 0.15 | 0.15 | 66 | 1018.9 |
| 20260506014018 | 17 | 248 | 4.8 | 11.3 | 0.00 | 0.15 | 0.15 | 64 | 1018.9 |
| 20260506013019 | 17 | 231 | 3.2 | 16.1 | 0.00 | 0.15 | 0.15 | 64 | 1018.9 |
| 20260506012040 | 17 | 244 | 4.8 | 9.7 | 0.00 | 0.15 | 0.15 | 65 | 1018.8 |
| 20260506011017 | 17 | 249 | 4.8 | 9.7 | 0.00 | 0.15 | 0.15 | 63 | 1018.7 |
| 20260506010019 | 17 | 246 | 3.2 | 8.0 | 0.00 | 0.15 | 0.15 | 63 | 1018.7 |
| 20260506005018 | 17 | 216 | 4.8 | 12.9 | 0.00 | 0.15 | 0.15 | 65 | 1018.8 |
| 20260506004037 | 17 | 203 | 3.2 | 12.9 | 0.00 | 0.15 | 0.15 | 65 | 1018.5 |
| 20260506003018 | 17 | 191 | 6.4 | 11.3 | 0.00 | 0.15 | 0.15 | 65 | 1018.5 |
| 20260506002039 | 17 | 180 | 6.4 | 14.5 | 0.00 | 0.15 | 0.15 | 64 | 1018.5 |
| 20260506001016 | 17 | 198 | 6.4 | 14.5 | 0.00 | 0.15 | 0.15 | 66 | 1018.5 |
| 20260506000029 | 17 | 186 | 8.0 | 14.5 | 0.00 | 0.15 | 0.15 | 66 | 1018.4 |
| 20260505235040 | 17 | 216 | 6.4 | 20.9 | 0.00 | 0.15 | 0.15 | 67 | 1018.4 |
| 20260505234037 | 16 | 195 | 6.4 | 14.5 | 0.00 | 0.15 | 0.15 | 67 | 1018.4 |
| 20260505233018 | 17 | 186 | 8.0 | 20.9 | 0.00 | 0.15 | 0.15 | 67 | 1018.6 |
| 20260505232017 | 17 | 207 | 3.2 | 9.7 | 0.00 | 0.15 | 0.15 | 66 | 1018.6 |
| 20260505231036 | 17 | 201 | 4.8 | 20.9 | 0.00 | 0.15 | 0.15 | 66 | 1018.5 |
| 20260505230018 | 17 | 235 | 6.4 | 17.7 | 0.00 | 0.15 | 0.15 | 62 | 1018.6 |
| 20260505225015 | 17 | 249 | 3.2 | 9.7 | 0.00 | 0.15 | 0.15 | 62 | 1018.5 |
| 20260505224036 | 17 | 304 | 6.4 | 11.3 | 0.00 | 0.15 | 0.15 | 62 | 1018.6 |
| 20260505223021 | 17 | 307 | 6.4 | 14.5 | 0.00 | 0.15 | 0.15 | 61 | 1018.6 |
| 20260505222019 | 17 | 289 | 6.4 | 16.1 | 0.00 | 0.15 | 0.15 | 61 | 1018.7 |
| 20260505221019 | 17 | 283 | 4.8 | 11.3 | 0.00 | 0.15 | 0.15 | 61 | 1018.7 |
| 20260505220022 | 17 | 300 | 6.4 | 14.5 | 0.00 | 0.15 | 0.15 | 60 | 1018.6 |
| 20260505215019 | 18 | 316 | 8.0 | 19.3 | 0.00 | 0.15 | 0.15 | 59 | 1018.7 |
| 20260505214020 | 18 | 301 | 6.4 | 16.1 | 0.00 | 0.15 | 0.15 | 58 | 1018.8 |
| 20260505213017 | 18 | 251 | 6.4 | 14.5 | 0.00 | 0.15 | 0.15 | 58 | 1018.9 |
| 20260505212016 | 17 | 228 | 4.8 | 11.3 | 0.00 | 0.15 | 0.15 | 59 | 1018.9 |
| 20260505211018 | 17 | 283 | 8.0 | 20.9 | 0.00 | 0.15 | 0.15 | 59 | 1019.2 |
| 20260505210016 | 17 | 281 | 6.4 | 17.7 | 0.00 | 0.15 | 0.15 | 59 | 1019.0 |
| 20260505205019 | 17 | 290 | 6.4 | 17.7 | 0.00 | 0.15 | 0.15 | 59 | 1018.9 |
| 20260505204025 | 17 | 261 | 6.4 | 16.1 | 0.00 | 0.15 | 0.15 | 60 | 1018.8 |
| 20260505203022 | 17 | 299 | 6.4 | 16.1 | 0.00 | 0.15 | 0.15 | 60 | 1019.0 |
| 20260505202039 | 17 | 271 | 6.4 | 16.1 | 0.00 | 0.15 | 0.15 | 60 | 1019.0 |
| 20260505201016 | 17 | 304 | 4.8 | 12.9 | 0.00 | 0.15 | 0.15 | 61 | 1019.2 |
| 20260505200037 | 17 | 284 | 8.0 | 17.7 | 0.00 | 0.15 | 0.15 | 61 | 1019.2 |
| 20260505195022 | 17 | 296 | 6.4 | 19.3 | 0.00 | 0.15 | 0.15 | 62 | 1019.2 |
| 20260505194019 | 17 | 294 | 6.4 | 14.5 | 0.00 | 0.15 | 0.15 | 62 | 1019.2 |
| 20260505193016 | 17 | 253 | 4.8 | 12.9 | 0.00 | 0.15 | 0.15 | 62 | 1019.2 |
| 20260505192018 | 16 | 250 | 6.4 | 14.5 | 0.00 | 0.15 | 0.15 | 65 | 1019.1 |
| 20260505191017 | 16 | 277 | 4.8 | 16.1 | 0.00 | 0.15 | 0.15 | 66 | 1019.2 |
| 20260505190020 | 16 | 303 | 4.8 | 16.1 | 0.00 | 0.15 | 0.15 | 69 | 1019.0 |
| 20260505185017 | 16 | 266 | 4.8 | 14.5 | 0.00 | 0.15 | 0.15 | 72 | 1019.0 |
| 20260505184018 | 15 | 256 | 6.4 | 14.5 | 0.00 | 0.15 | 0.15 | 71 | 1019.1 |
| 20260505183020 | 15 | 261 | 4.8 | 11.3 | 0.00 | 0.15 | 0.15 | 72 | 1019.2 |
| 20260505182022 | 15 | 254 | 4.8 | 12.9 | 0.00 | 0.15 | 0.15 | 75 | 1019.1 |
| 20260505181018 | 15 | 256 | 6.4 | 11.3 | 0.00 | 0.15 | 0.15 | 74 | 1019.1 |
| 20260505180020 | 15 | 246 | 4.8 | 14.5 | 0.00 | 0.15 | 0.15 | 76 | 1019.1 |
| 20260505175016 | 14 | 293 | 6.4 | 17.7 | 0.00 | 0.15 | 0.15 | 78 | 1019.0 |
| 20260505174037 | 14 | 251 | 3.2 | 11.3 | 0.00 | 0.15 | 0.15 | 79 | 1018.9 |
| 20260505173020 | -17 | 315 | 3.2 | 9.7 | 0.00 | 0.15 | 0.15 | 1019.0 | |
| 20260505172019 | 14 | 308 | 6.4 | 14.5 | 0.00 | 0.15 | 0.15 | 80 | 1018.9 |
| 20260505171038 | 13 | 303 | 4.8 | 11.3 | 0.00 | 0.15 | 0.15 | 81 | 1018.7 |
| 20260505170020 | 13 | 302 | 3.2 | 6.4 | 0.00 | 0.15 | 0.15 | 83 | 1018.7 |
| 20260505165017 | 13 | 248 | 1.6 | 6.4 | 0.00 | 0.15 | 0.15 | 84 | 1018.7 |
| 20260505164018 | 13 | 239 | 3.2 | 6.4 | 0.00 | 0.15 | 0.15 | 85 | 1018.7 |
| 20260505163019 | 13 | 264 | 1.6 | 4.8 | 0.00 | 0.15 | 0.15 | 85 | 1018.6 |
| 20260505162020 | 13 | 273 | 1.6 | 4.8 | 0.00 | 0.15 | 0.15 | 85 | 1018.7 |
| 20260505161017 | 13 | 189 | 1.6 | 6.4 | 0.00 | 0.15 | 0.15 | 85 | 1018.4 |
| 20260505153019 | 12 | 168 | 1.6 | 4.8 | 0.00 | 0.15 | 0.15 | 86 | 1018.3 |
| 20260505152016 | 12 | 164 | 1.6 | 4.8 | 0.00 | 0.15 | 0.15 | 86 | 1018.2 |
| 20260505151016 | 12 | 178 | 1.6 | 4.8 | 0.00 | 0.15 | 0.15 | 86 | 1018.2 |
| 20260505125024 | 12 | 129 | 1.6 | 3.2 | 0.00 | 0.15 | 0.15 | 89 | 1017.7 |
| 20260505124019 | 11 | 307 | 0.0 | 3.2 | 0.00 | 0.15 | 0.15 | 89 | 1017.8 |
| 20260505123057 | 12 | 42 | 0.0 | 3.2 | 0.00 | 0.15 | 0.15 | 89 | 1017.6 |
| 20260505122019 | 11 | 306 | 1.6 | 3.2 | 0.00 | 0.15 | 0.15 | 88 | 1017.5 |
| 20260505121020 | 11 | 198 | 0.0 | 3.2 | 0.00 | 0.15 | 0.15 | 88 | 1017.4 |
| 20260505120017 | 11 | 187 | 1.6 | 4.8 | 0.00 | 0.15 | 0.15 | 87 | 1017.4 |
| 20260505115042 | 12 | 189 | 1.6 | 4.8 | 0.00 | 0.15 | 0.15 | 87 | 1017.6 |
| 20260505114038 | 12 | 237 | 1.6 | 6.4 | 0.00 | 0.15 | 0.15 | 86 | 1017.7 |
| 20260505113037 | 12 | 321 | 1.6 | 6.4 | 0.00 | 0.15 | 0.15 | 85 | 1017.9 |
| 20260505112017 | 12 | 276 | 1.6 | 4.8 | 0.00 | 0.15 | 0.15 | 86 | 1017.8 |
| 20260505111019 | 12 | 278 | 1.6 | 6.4 | 0.00 | 0.15 | 0.15 | 87 | 1017.7 |
| 20260505102021 | 12 | 129 | 0.0 | 3.2 | 0.00 | 0.15 | 0.15 | 90 | 1017.7 |
| 20260505101018 | 12 | 0.0 | 0.0 | 0.00 | 0.15 | 0.15 | 91 | 1017.6 | |
| 20260505100021 | 11 | 0.0 | 0.0 | 0.03 | 0.15 | 0.15 | 91 | 1017.7 | |
| 20260505095018 | 11 | 196 | 0.0 | 1.6 | 0.05 | 0.13 | 0.13 | 91 | 1017.8 |
| 20260505094037 | 11 | 263 | 0.0 | 3.2 | 0.08 | 0.13 | 0.13 | 90 | 1017.8 |
| 20260505093019 | 11 | 269 | 0.0 | 3.2 | 0.08 | 0.13 | 0.13 | 90 | 1018.0 |
| 20260505092038 | 11 | 173 | 0.0 | 1.6 | 0.08 | 0.13 | 0.13 | 90 | 1018.1 |
| 20260505091019 | 12 | 280 | 0.0 | 3.2 | 0.08 | 0.13 | 0.13 | 89 | 1018.4 |
| 20260505090020 | 12 | 278 | 0.0 | 4.8 | 0.08 | 0.13 | 0.13 | 88 | 1018.5 |
| 20260505085021 | 12 | 216 | 0.0 | 3.2 | 0.05 | 0.08 | 0.08 | 86 | 1018.3 |
| 20260505084024 | 12 | 315 | 0.0 | 3.2 | 0.03 | 0.05 | 0.05 | 86 | 1018.3 |
| 20260505083041 | 12 | 195 | 0.0 | 3.2 | 0.03 | 0.05 | 0.05 | 86 | 1018.4 |
| 20260505082016 | 12 | 180 | 0.0 | 3.2 | 0.05 | 0.05 | 0.05 | 85 | 1018.4 |
| 20260505081017 | 12 | 191 | 0.0 | 3.2 | 0.05 | 0.05 | 0.05 | 85 | 1018.7 |
| 20260505080020 | 12 | 214 | 1.6 | 3.2 | 0.05 | 0.05 | 0.05 | 84 | 1018.5 |
| 20260505075017 | 12 | 239 | 3.2 | 6.4 | 0.05 | 0.05 | 0.05 | 81 | 1018.6 |
| 20260505074023 | 12 | 266 | 1.6 | 6.4 | 0.03 | 0.03 | 0.03 | 80 | 1018.7 |
| 20260505073024 | 12 | 290 | 3.2 | 8.0 | 0.03 | 0.03 | 0.03 | 79 | 1018.7 |
| 20260505072021 | 12 | 299 | 3.2 | 8.0 | 0.00 | 0.00 | 0.00 | 78 | 1018.7 |
| 20260505071024 | 12 | 290 | 3.2 | 6.4 | 0.00 | 0.00 | 0.00 | 77 | 1018.7 |
| 20260505070019 | 12 | 302 | 3.2 | 6.4 | 0.00 | 0.00 | 0.00 | 78 | 1018.6 |
| 20260505065020 | 12 | 301 | 3.2 | 6.4 | 0.00 | 0.00 | 0.00 | 77 | 1018.5 |
| 20260505064023 | 12 | 291 | 3.2 | 8.0 | 0.00 | 0.00 | 0.00 | 77 | 1018.5 |
| 20260505063019 | 12 | 288 | 4.8 | 11.3 | 0.00 | 0.00 | 0.00 | 76 | 1018.4 |